Starlink 11510

operational
NORAD ID: 62516 Int'l Des: 2025-004 Owner: SPXS Country: US Constellation: starlink
LEOCIRCULAR

关于 Starlink 11510

正在加载描述...

实时位置

正在加载3D地球...

即将过境

高度历史

Altitude vs Time

uPlot chart will show altitude changes over time

两行轨道根数

1 62516U 25004F 25261.36756758 .00224041 00000-0 16900-2 0 9995
2 62516 42.9985 29.7075 0003263 151.2941 208.8107 15.71017992 40109
Epoch: Sep 18, 2025 • Age: 24 hours

当前状态

高度 367.6 km
速度 7.69 km/s
星下点 -38.47°S, 167.11°W
发射日期 Jan 8, 2025
运行时间 0.6 years
类型 internet

技术详情

分类 Payload
质量 960.00 kg
干质量 910.00 kg
总质量 960.00 kg
长度 0.30 m
直径 4.10 m
跨度 29.00 m
形状 Box + pan
制造商 SPXS
平台类型 Starlink V2MD
阶段状态 In Orbit
所有者/国家 SPXS/US

大型星座

Loading constellations...